sat.trackr.live / text

‹ back to catalog

AE5RB

NORAD 66693 · 2025-276AD

PAYLOAD ACTIVE UNKNOWN

§ Identity

Operator
Country
JPN
Launch date
2025-11-28
Launch site
AFWTR
Launch vehicle
Mass (kg)
RCS (m²)

External: N2YO · Heavens-Above · Gunter

§ Orbital elements

Epoch: 2026-09-20T22:49:09.113952Z

Period
94.43 min
Inclination
97.4090°
Eccentricity
0.0004370
Mean motion
15.24914450 rev/d
Perigee alt
488.0 km
Apogee alt
494.0 km
Semi-major
6,869.2 km
B*
3.2831e-4
RAAN
336.7527°
Arg perigee
50.0606°
Mean anomaly
310.1015°
Rev number
4,503

§ Raw data

AE5RB1 66693U 25276AD  26263.95079993  .00008104  00000+0  32831-3 0  99942 66693  97.4090 336.7527 0004370  50.0606 310.1015 15.24914450 45033

JSON: /api/v1/satellites/66693 · /tle

For live sub-satellite position, see the globe view (requires WebGL).

§ Visibility from observer

Set your observer location to see the next 7 days of passes ≥ 10°. The values pass through the URL so the page stays shareable.

No JS? Fill the form by hand. The geolocation button needs JavaScript.